Location: Chevoux
(46.3801°N, 4.9476°E)
Time: 01:59:39
(UTC+00:00)

ISS - Pass Details

Date: 02 December 2021
Orbit: 413 x 422 km, 51.6° (Epoch: 22 January)

Event Time Altitude Azimuth Distance (km) Brightness Sun altitude
Rises 16:47:31 0° 291° (WNW) 2,386 0.9 -8.9°
Reaches altitude 10° 16:49:45 10° 300° (WNW) 1,518 -0.4 -9.2°
Maximum altitude 16:52:55 35° 8° (N) 709 -2.9 -9.8°
Enters shadow 16:55:18 15° 70° (ENE) 1,234 -2.1 -10.1°
